Tracking 22458 objects as of 4-Mar-2021
HD Live streaming from Space Station
objects crossing your sky now

FREGAT DEB

Track FREGAT DEB now!
10-day predictions


NORAD ID: 40078
Int'l Code: 2014-037K
Perigee: 628.7 km
Apogee: 822.0 km
Inclination: 98.0 °
Period: 99.2 minutes
Semi major axis: 7096 km
RCS: Unknown
Launch date: July 8, 2014
Source: Commonwealth of Independent States (former USSR) (CIS)
Launch site: TYURATAM MISSILE AND SPACE COMPLEX (TTMTR)

Note: This is SATELLITE DEBRIS
aabbcc
Your satellite tracking list
Your tracking list is empty




NASA's NSSDC Master Catalog

Two Line Element Set (TLE):
1 40078U 14037K   21062.77991861  .00000048  00000-0  21580-4 0  9995
2 40078  98.0420  97.4500 0136142 300.4770  58.3039 14.52277522352541
Source of the keplerian elements: AFSPC